QPF
0.00 0.00 0.00 0.00 0.00 0.00 0.00 0.00 0.00 0.00 0.00 0.01 0.01 0.00 0.01 0.01 0.01 0.02 0.03 0.03 0.02 0.01 0.00 0.00 0.00 0.00 0.00 0.00 0.00 0.00 0.00 0.00 0.00 0.00 0.00 0.00 0.00 0.00 0.00 0.00 0.00 0.00 0.00 0.00 0.00 0.01 0.00 0.01 0.01
0.00 0.00 0.00 0.00 0.00 0.00 0.00 0.00 0.00 0.00 0.00 0.00 0.00 0.00 0.01 0.01 0.00 0.01 0.02 0.02 0.02 0.01 0.00 0.00 0.00 0.00 0.00 0.00 0.00 0.00 0.00 0.00 0.00 0.00 0.00 0.00 0.00 0.00 0.00 0.00 0.00 0.00 0.00 0.00 0.00 0.00 0.00 0.00 0.00
0.00 0.00 0.00 0.00 0.00 0.00 0.00 0.00 0.00 0.00 0.00 0.01 0.01 0.01 0.00 0.01 0.01 0.01 0.03 0.01 0.01 0.01 0.00 0.00 0.00 0.00 0.00 0.00 0.00 0.00 0.00 0.00 0.00 0.00 0.00 0.00 0.00 0.00 0.00 0.00 0.00 0.00 0.00 0.00 0.00 0.00 0.00 0.00 0.00
0.00 0.00 0.00 0.00 0.00 0.00 0.00 0.00 0.00 0.00 0.00 0.00 0.00 0.01 0.01 0.01 0.01 0.01 0.02 0.01 0.01 0.01 0.00 0.00 0.00 0.00 0.00 0.00 0.00 0.00 0.00 0.00 0.00 0.00 0.00 0.00 0.00 0.00 0.00 0.00 0.00 0.00 0.00 0.00 0.00 0.00 0.00 0.00 0.00
0.00 0.00 0.00 0.00 0.00 0.00 0.00 0.00 0.00 0.00 0.00 0.00 0.00 0.00 0.01 0.01 0.03 0.03 0.01 0.01 0.02 0.02 0.01 0.00 0.00 0.00 0.00 0.00 0.00 0.00 0.00 0.00 0.00 0.00 0.00 0.00 0.00 0.00 0.00 0.00 0.00 0.00 0.00 0.00 0.00 0.00 0.00 0.00 0.00
0.00 0.00 0.00 0.00 0.00 0.00 0.00 0.00 0.00 0.00 0.00 0.00 0.00 0.00 0.01 0.01 0.03 0.02 0.02 0.02 0.02 0.02 0.04 0.03 0.00 0.00 0.00 0.00 0.00 0.00 0.00 0.00 0.00 0.00 0.00 0.00 0.00 0.00 0.00 0.00 0.00 0.00 0.00 0.00 0.00 0.00 0.00 0.00 0.00
0.00 0.00 0.00 0.00 0.00 0.00 0.00 0.00 0.00 0.00 0.00 0.00 0.00 0.00 0.01 0.01 0.02 0.02 0.03 0.03 0.04 0.05 0.11 0.12 0.02 0.01 0.01 0.00 0.00 0.00 0.00 0.00 0.01 0.00 0.00 0.00 0.01 0.01 0.01 0.00 0.00 0.00 0.00 0.00 0.00 0.00 0.00 0.00 0.00
0.00 0.00 0.00 0.00 0.00 0.00 0.00 0.00 0.00 0.00 0.00 0.00 0.00 0.00 0.00 0.01 0.02 0.04 0.05 0.05 0.08 0.15 0.17 0.11 0.03 0.01 0.01 0.01 0.01 0.00 0.01 0.01 0.01 0.00 0.00 0.00 0.01 0.01 0.01 0.01 0.01 0.01 0.01 0.01 0.01 0.00 0.00 0.00 0.00
0.00 0.00 0.00 0.00 0.00 0.00 0.00 0.00 0.00 0.00 0.00 0.00 0.00 0.00 0.00 0.00 0.01 0.03 0.07 0.08 0.12 0.17 0.17 0.13 0.05 0.02 0.01 0.01 0.01 0.01 0.01 0.01 0.01 0.01 0.00 0.00 0.00 0.01 0.01 0.01 0.01 0.01 0.01 0.01 0.01 0.00 0.00 0.00 0.00
0.00 0.00 0.00 0.00 0.00 0.00 0.00 0.00 0.00 0.00 0.00 0.00 0.00 0.00 0.00 0.01 0.01 0.02 0.05 0.11 0.15 0.21 0.27 0.21 0.10 0.04 0.02 0.02 0.02 0.02 0.02 0.02 0.02 0.02 0.02 0.02 0.02 0.02 0.02 0.03 0.02 0.02 0.01 0.01 0.01 0.01 0.00 0.00 0.00
0.00 0.00 0.00 0.00 0.00 0.00 0.00 0.00 0.00 0.00 0.00 0.00 0.00 0.00 0.00 0.01 0.03 0.04 0.05 0.10 0.17 0.29 0.34 0.28 0.16 0.08 0.05 0.04 0.04 0.03 0.03 0.03 0.03 0.03 0.04 0.03 0.03 0.03 0.04 0.04 0.04 0.03 0.02 0.01 0.01 0.00 0.00 0.01 0.00
0.00 0.00 0.00 0.00 0.00 0.00 0.00 0.00 0.00 0.00 0.00 0.00 0.00 0.00 0.01 0.02 0.04 0.08 0.10 0.13 0.17 0.25 0.34 0.32 0.20 0.15 0.14 0.13 0.10 0.06 0.04 0.04 0.04 0.04 0.05 0.05 0.07 0.08 0.12 0.13 0.08 0.07 0.05 0.03 0.01 0.01 0.01 0.01 0.02
0.00 0.00 0.00 0.00 0.00 0.00 0.00 0.00 0.00 0.00 0.00 0.00 0.00 0.00 0.01 0.02 0.04 0.06 0.13 0.22 0.26 0.30 0.30 0.25 0.27 0.29 0.28 0.22 0.20 0.13 0.10 0.09 0.09 0.09 0.07 0.09 0.11 0.14 0.20 0.19 0.15 0.15 0.13 0.08 0.05 0.04 0.04 0.04 0.03
0.00 0.00 0.00 0.00 0.00 0.00 0.00 0.00 0.00 0.00 0.00 0.00 0.00 0.00 0.00 0.01 0.02 0.07 0.20 0.40 0.45 0.40 0.38 0.31 0.27 0.29 0.27 0.22 0.24 0.27 0.21 0.19 0.20 0.17 0.16 0.16 0.14 0.16 0.24 0.27 0.27 0.23 0.21 0.17 0.14 0.12 0.10 0.08 0.05
0.00 0.00 0.00 0.00 0.00 0.00 0.00 0.00 0.00 0.00 0.00 0.00 0.00 0.00 0.00 0.01 0.02 0.06 0.19 0.38 0.39 0.36 0.32 0.33 0.36 0.35 0.33 0.31 0.30 0.36 0.37 0.33 0.38 0.35 0.29 0.24 0.20 0.20 0.26 0.32 0.26 0.25 0.25 0.28 0.29 0.27 0.22 0.14 0.10
0.00 0.00 0.00 0.00 0.00 0.00 0.00 0.00 0.00 0.00 0.00 0.00 0.00 0.00 0.01 0.01 0.03 0.06 0.10 0.18 0.24 0.33 0.34 0.38 0.41 0.35 0.32 0.40 0.46 0.53 0.52 0.47 0.47 0.49 0.47 0.40 0.29 0.27 0.32 0.37 0.33 0.27 0.29 0.35 0.36 0.38 0.33 0.22 0.18
0.00 0.00 0.00 0.00 0.00 0.00 0.00 0.00 0.00 0.00 0.01 0.01 0.01 0.01 0.01 0.01 0.03 0.05 0.07 0.11 0.18 0.25 0.32 0.35 0.37 0.36 0.32 0.35 0.38 0.49 0.53 0.51 0.50 0.49 0.45 0.45 0.46 0.43 0.40 0.40 0.37 0.33 0.36 0.42 0.40 0.36 0.29 0.22 0.20
0.00 0.00 0.00 0.00 0.00 0.00 0.01 0.01 0.01 0.01 0.02 0.02 0.02 0.02 0.02 0.02 0.03 0.05 0.09 0.13 0.17 0.25 0.25 0.27 0.33 0.32 0.25 0.29 0.30 0.31 0.33 0.40 0.48 0.52 0.50 0.41 0.50 0.53 0.53 0.51 0.43 0.40 0.38 0.37 0.37 0.30 0.27 0.22 0.21
0.00 0.00 0.00 0.00 0.00 0.00 0.02 0.01 0.01 0.01 0.02 0.03 0.03 0.03 0.03 0.03 0.04 0.05 0.09 0.14 0.22 0.28 0.29 0.26 0.24 0.25 0.21 0.23 0.26 0.29 0.34 0.42 0.48 0.45 0.42 0.38 0.42 0.49 0.52 0.56 0.45 0.40 0.39 0.34 0.31 0.27 0.25 0.21 0.19
0.00 0.00 0.00 0.00 0.00 0.00 0.02 0.02 0.01 0.01 0.02 0.05 0.07 0.09 0.12 0.10 0.06 0.05 0.08 0.12 0.16 0.24 0.28 0.24 0.22 0.23 0.23 0.25 0.33 0.38 0.40 0.42 0.46 0.47 0.40 0.38 0.38 0.40 0.40 0.41 0.40 0.36 0.36 0.35 0.32 0.29 0.24 0.19 0.17
0.00 0.00 0.00 0.00 0.00 0.00 0.01 0.02 0.02 0.03 0.04 0.08 0.16 0.19 0.18 0.12 0.07 0.06 0.07 0.10 0.12 0.16 0.26 0.27 0.24 0.22 0.24 0.27 0.33 0.39 0.46 0.48 0.42 0.41 0.41 0.39 0.36 0.35 0.34 0.28 0.25 0.26 0.29 0.30 0.29 0.27 0.24 0.20 0.17
0.00 0.00 0.00 0.00 0.00 0.00 0.01 0.01 0.03 0.06 0.06 0.10 0.17 0.17 0.14 0.13 0.10 0.07 0.09 0.12 0.13 0.16 0.20 0.24 0.25 0.24 0.27 0.29 0.31 0.41 0.46 0.42 0.38 0.33 0.31 0.27 0.24 0.22 0.20 0.16 0.15 0.16 0.19 0.20 0.21 0.23 0.21 0.19 0.17
0.00 0.00 0.00 0.00 0.00 0.00 0.00 0.01 0.04 0.08 0.07 0.07 0.13 0.15 0.12 0.10 0.09 0.07 0.06 0.09 0.13 0.14 0.15 0.14 0.18 0.25 0.30 0.30 0.30 0.32 0.38 0.38 0.35 0.30 0.28 0.23 0.21 0.19 0.17 0.16 0.13 0.12 0.12 0.13 0.15 0.16 0.17 0.17 0.17
0.00 0.00 0.00 0.00 0.00 0.00 0.01 0.02 0.03 0.05 0.07 0.09 0.10 0.09 0.08 0.07 0.07 0.07 0.05 0.04 0.07 0.07 0.07 0.08 0.11 0.14 0.25 0.31 0.28 0.27 0.27 0.25 0.24 0.20 0.19 0.18 0.14 0.14 0.15 0.17 0.15 0.13 0.11 0.09 0.09 0.10 0.11 0.11 0.11
0.01 0.01 0.01 0.00 0.01 0.01 0.02 0.03 0.05 0.05 0.08 0.11 0.12 0.10 0.07 0.04 0.02 0.02 0.02 0.02 0.02 0.02 0.04 0.05 0.09 0.14 0.16 0.19 0.25 0.26 0.24 0.21 0.17 0.13 0.11 0.10 0.10 0.11 0.11 0.10 0.11 0.12 0.12 0.12 0.11 0.09 0.09 0.09 0.10
0.01 0.01 0.01 0.01 0.02 0.02 0.03 0.05 0.12 0.12 0.16 0.17 0.15 0.14 0.11 0.07 0.03 0.02 0.01 0.02 0.02 0.02 0.03 0.04 0.05 0.09 0.12 0.14 0.18 0.20 0.18 0.20 0.20 0.13 0.10 0.09 0.07 0.07 0.07 0.06 0.07 0.08 0.08 0.09 0.09 0.08 0.08 0.07 0.08
0.01 0.00 0.01 0.02 0.02 0.03 0.04 0.08 0.17 0.16 0.17 0.20 0.26 0.20 0.12 0.07 0.03 0.02 0.01 0.01 0.01 0.01 0.02 0.03 0.05 0.06 0.08 0.09 0.10 0.10 0.11 0.13 0.15 0.14 0.11 0.08 0.06 0.05 0.05 0.05 0.06 0.07 0.08 0.08 0.07 0.05 0.05 0.04 0.03
0.01 0.01 0.01 0.03 0.05 0.05 0.06 0.09 0.17 0.14 0.22 0.25 0.24 0.16 0.06 0.04 0.02 0.02 0.01 0.01 0.01 0.01 0.01 0.02 0.03 0.05 0.06 0.06 0.06 0.06 0.05 0.05 0.06 0.06 0.04 0.03 0.03 0.02 0.02 0.02 0.03 0.03 0.04 0.03 0.03 0.02 0.01 0.01 0.01
0.01 0.01 0.02 0.03 0.04 0.05 0.07 0.09 0.10 0.10 0.17 0.17 0.12 0.10 0.06 0.03 0.01 0.01 0.01 0.01 0.01 0.01 0.02 0.02 0.02 0.03 0.05 0.06 0.06 0.07 0.06 0.05 0.04 0.03 0.03 0.02 0.01 0.01 0.01 0.01 0.01 0.01 0.02 0.02 0.02 0.02 0.02 0.01 0.01
0.01 0.02 0.02 0.04 0.05 0.05 0.07 0.08 0.07 0.08 0.14 0.15 0.10 0.06 0.04 0.02 0.01 0.01 0.01 0.01 0.02 0.02 0.02 0.02 0.03 0.03 0.05 0.05 0.05 0.06 0.07 0.06 0.06 0.04 0.02 0.01 0.01 0.00 0.00 0.00 0.01 0.01 0.01 0.01 0.01 0.01 0.01 0.01 0.01
MSLP
1010.83 1011.84 1013.06 1014.24 1015.15 1015.60 1015.49 1014.85 1013.80 1012.57 1011.39 1010.46 1009.90 1009.75 1009.92 1010.28 1010.68 1010.96 1011.06 1010.98 1010.79 1010.59 1010.49 1010.56 1010.82 1011.22 1011.67 1012.09 1012.40 1012.57 1012.61 1012.59 1012.60 1012.72 1012.98 1013.40 1013.91 1014.45 1014.93 1015.29 1015.50 1015.58 1015.59 1015.58 1015.61 1015.73 1015.94 1016.21 1016.49
1011.31 1012.51 1013.80 1014.95 1015.70 1015.90 1015.49 1014.52 1013.18 1011.69 1010.31 1009.25 1008.61 1008.42 1008.59 1008.97 1009.41 1009.76 1009.96 1010.02 1009.99 1009.97 1010.05 1010.30 1010.71 1011.22 1011.77 1012.25 1012.59 1012.78 1012.84 1012.84 1012.86 1012.99 1013.25 1013.65 1014.14 1014.63 1015.07 1015.39 1015.57 1015.64 1015.64 1015.64 1015.69 1015.82 1016.04 1016.31 1016.58
1011.96 1013.28 1014.58 1015.61 1016.16 1016.09 1015.38 1014.12 1012.53 1010.84 1009.32 1008.18 1007.50 1007.28 1007.45 1007.84 1008.30 1008.71 1008.99 1009.15 1009.26 1009.39 1009.64 1010.04 1010.58 1011.21 1011.84 1012.38 1012.76 1012.98 1013.07 1013.09 1013.12 1013.24 1013.49 1013.85 1014.29 1014.74 1015.13 1015.42 1015.59 1015.67 1015.70 1015.74 1015.82 1015.98 1016.20 1016.46 1016.71
1012.73 1014.08 1015.31 1016.18 1016.49 1016.15 1015.17 1013.69 1011.91 1010.11 1008.53 1007.35 1006.66 1006.45 1006.61 1007.00 1007.47 1007.90 1008.23 1008.47 1008.69 1008.95 1009.32 1009.84 1010.49 1011.20 1011.88 1012.46 1012.89 1013.14 1013.25 1013.29 1013.33 1013.44 1013.66 1013.98 1014.37 1014.76 1015.12 1015.39 1015.58 1015.70 1015.79 1015.89 1016.03 1016.22 1016.45 1016.70 1016.92
1013.52 1014.81 1015.90 1016.56 1016.63 1016.05 1014.87 1013.24 1011.38 1009.55 1007.98 1006.84 1006.18 1005.98 1006.14 1006.52 1006.98 1007.40 1007.76 1008.05 1008.34 1008.69 1009.15 1009.74 1010.45 1011.20 1011.91 1012.51 1012.94 1013.21 1013.35 1013.41 1013.46 1013.57 1013.76 1014.04 1014.38 1014.73 1015.07 1015.35 1015.57 1015.76 1015.93 1016.11 1016.31 1016.54 1016.77 1016.99 1017.17
1014.18 1015.35 1016.24 1016.66 1016.51 1015.75 1014.44 1012.76 1010.93 1009.17 1007.70 1006.64 1006.05 1005.88 1006.04 1006.39 1006.82 1007.23 1007.58 1007.90 1008.22 1008.62 1009.13 1009.75 1010.47 1011.22 1011.91 1012.50 1012.93 1013.21 1013.36 1013.44 1013.51 1013.62 1013.80 1014.05 1014.36 1014.68 1015.01 1015.30 1015.58 1015.83 1016.08 1016.34 1016.61 1016.87 1017.11 1017.30 1017.43
1014.59 1015.57 1016.23 1016.43 1016.09 1015.21 1013.87 1012.25 1010.53 1008.93 1007.63 1006.71 1006.21 1006.09 1006.24 1006.56 1006.94 1007.31 1007.64 1007.96 1008.30 1008.72 1009.23 1009.85 1010.54 1011.25 1011.90 1012.45 1012.86 1013.14 1013.30 1013.41 1013.51 1013.64 1013.82 1014.06 1014.34 1014.65 1014.97 1015.28 1015.59 1015.91 1016.23 1016.55 1016.87 1017.15 1017.39 1017.55 1017.65
1014.68 1015.44 1015.86 1015.85 1015.37 1014.44 1013.16 1011.67 1010.15 1008.79 1007.69 1006.95 1006.56 1006.49 1006.63 1006.91 1007.23 1007.55 1007.85 1008.15 1008.49 1008.90 1009.40 1009.99 1010.63 1011.27 1011.86 1012.36 1012.75 1013.02 1013.21 1013.36 1013.50 1013.66 1013.86 1014.11 1014.38 1014.67 1014.98 1015.30 1015.62 1015.97 1016.32 1016.68 1017.03 1017.32 1017.56 1017.70 1017.78
1014.46 1014.97 1015.17 1014.98 1014.41 1013.49 1012.33 1011.04 1009.78 1008.67 1007.82 1007.26 1006.98 1006.94 1007.07 1007.30 1007.56 1007.82 1008.08 1008.35 1008.68 1009.08 1009.56 1010.10 1010.68 1011.26 1011.78 1012.24 1012.60 1012.88 1013.11 1013.31 1013.51 1013.73 1013.97 1014.23 1014.50 1014.77 1015.05 1015.35 1015.66 1016.00 1016.35 1016.72 1017.06 1017.36 1017.59 1017.74 1017.81
1013.99 1014.29 1014.28 1013.95 1013.33 1012.47 1011.45 1010.39 1009.40 1008.56 1007.94 1007.54 1007.36 1007.35 1007.45 1007.61 1007.80 1008.00 1008.21 1008.46 1008.77 1009.15 1009.60 1010.11 1010.64 1011.16 1011.64 1012.06 1012.42 1012.73 1013.01 1013.29 1013.56 1013.85 1014.14 1014.42 1014.70 1014.95 1015.19 1015.44 1015.71 1016.00 1016.33 1016.67 1017.00 1017.29 1017.52 1017.68 1017.77
1013.44 1013.53 1013.35 1012.91 1012.27 1011.48 1010.63 1009.79 1009.04 1008.44 1008.01 1007.75 1007.63 1007.62 1007.67 1007.76 1007.87 1008.00 1008.17 1008.39 1008.68 1009.04 1009.47 1009.95 1010.45 1010.93 1011.39 1011.81 1012.19 1012.55 1012.91 1013.27 1013.63 1014.00 1014.35 1014.66 1014.94 1015.17 1015.37 1015.57 1015.77 1016.01 1016.28 1016.58 1016.88 1017.17 1017.41 1017.60 1017.74
1012.95 1012.86 1012.54 1012.02 1011.37 1010.65 1009.94 1009.28 1008.74 1008.32 1008.03 1007.86 1007.77 1007.73 1007.72 1007.73 1007.75 1007.81 1007.92 1008.11 1008.37 1008.72 1009.14 1009.60 1010.08 1010.56 1011.03 1011.47 1011.90 1012.33 1012.77 1013.22 1013.68 1014.12 1014.53 1014.89 1015.17 1015.39 1015.56 1015.71 1015.85 1016.02 1016.24 1016.49 1016.77 1017.06 1017.33 1017.57 1017.78
1012.64 1012.41 1011.97 1011.39 1010.73 1010.07 1009.46 1008.94 1008.53 1008.23 1008.02 1007.88 1007.78 1007.70 1007.61 1007.53 1007.47 1007.46 1007.51 1007.64 1007.88 1008.20 1008.61 1009.07 1009.55 1010.05 1010.55 1011.04 1011.54 1012.05 1012.57 1013.11 1013.65 1014.16 1014.63 1015.02 1015.33 1015.55 1015.71 1015.82 1015.92 1016.05 1016.22 1016.45 1016.72 1017.02 1017.33 1017.63 1017.92
1012.57 1012.24 1011.71 1011.08 1010.41 1009.78 1009.22 1008.78 1008.44 1008.19 1008.02 1007.87 1007.73 1007.59 1007.42 1007.26 1007.12 1007.02 1007.01 1007.09 1007.28 1007.57 1007.96 1008.42 1008.92 1009.45 1009.99 1010.55 1011.11 1011.70 1012.29 1012.90 1013.50 1014.07 1014.58 1015.00 1015.34 1015.58 1015.75 1015.86 1015.96 1016.08 1016.24 1016.46 1016.74 1017.07 1017.43 1017.80 1018.17
1012.71 1012.29 1011.71 1011.04 1010.36 1009.74 1009.22 1008.80 1008.48 1008.25 1008.06 1007.88 1007.70 1007.49 1007.27 1007.03 1006.81 1006.65 1006.56 1006.58 1006.71 1006.96 1007.31 1007.76 1008.28 1008.84 1009.43 1010.04 1010.67 1011.31 1011.96 1012.60 1013.23 1013.82 1014.35 1014.80 1015.17 1015.45 1015.65 1015.81 1015.94 1016.08 1016.27 1016.51 1016.81 1017.18 1017.59 1018.04 1018.49
1012.94 1012.46 1011.84 1011.17 1010.50 1009.90 1009.39 1008.97 1008.65 1008.40 1008.18 1007.98 1007.76 1007.51 1007.24 1006.96 1006.69 1006.47 1006.31 1006.25 1006.31 1006.50 1006.81 1007.22 1007.74 1008.32 1008.95 1009.61 1010.28 1010.95 1011.62 1012.26 1012.88 1013.46 1013.98 1014.44 1014.83 1015.16 1015.42 1015.63 1015.82 1016.02 1016.25 1016.54 1016.88 1017.29 1017.76 1018.26 1018.78
1013.10 1012.61 1012.00 1011.35 1010.73 1010.16 1009.67 1009.27 1008.94 1008.67 1008.43 1008.20 1007.96 1007.70 1007.43 1007.13 1006.84 1006.58 1006.36 1006.23 1006.21 1006.31 1006.55 1006.93 1007.42 1008.00 1008.65 1009.33 1010.01 1010.69 1011.33 1011.95 1012.52 1013.05 1013.54 1013.98 1014.38 1014.74 1015.06 1015.35 1015.62 1015.89 1016.17 1016.50 1016.89 1017.33 1017.84 1018.40 1018.98
1013.06 1012.60 1012.06 1011.51 1010.97 1010.47 1010.03 1009.66 1009.33 1009.05 1008.80 1008.56 1008.34 1008.10 1007.86 1007.59 1007.31 1007.03 1006.77 1006.58 1006.47 1006.48 1006.63 1006.94 1007.38 1007.94 1008.57 1009.25 1009.93 1010.57 1011.18 1011.72 1012.22 1012.67 1013.10 1013.51 1013.90 1014.29 1014.66 1015.01 1015.35 1015.68 1016.02 1016.39 1016.80 1017.27 1017.80 1018.39 1019.02
1012.77 1012.40 1011.99 1011.58 1011.19 1010.81 1010.46 1010.13 1009.82 1009.54 1009.29 1009.07 1008.88 1008.70 1008.51 1008.30 1008.06 1007.80 1007.53 1007.27 1007.09 1007.00 1007.06 1007.27 1007.64 1008.15 1008.75 1009.39 1010.04 1010.64 1011.18 1011.65 1012.05 1012.42 1012.77 1013.12 1013.49 1013.88 1014.28 1014.67 1015.07 1015.45 1015.82 1016.20 1016.62 1017.08 1017.62 1018.22 1018.88
1012.25 1012.03 1011.81 1011.61 1011.42 1011.20 1010.96 1010.70 1010.42 1010.15 1009.90 1009.70 1009.54 1009.42 1009.31 1009.19 1009.03 1008.80 1008.54 1008.25 1008.00 1007.82 1007.77 1007.88 1008.16 1008.59 1009.13 1009.72 1010.32 1010.87 1011.34 1011.73 1012.05 1012.33 1012.60 1012.89 1013.22 1013.60 1014.01 1014.43 1014.84 1015.24 1015.62 1016.00 1016.39 1016.83 1017.33 1017.92 1018.59
1011.60 1011.58 1011.62 1011.68 1011.72 1011.69 1011.58 1011.38 1011.12 1010.84 1010.58 1010.38 1010.26 1010.19 1010.17 1010.14 1010.06 1009.91 1009.67 1009.38 1009.08 1008.82 1008.67 1008.67 1008.84 1009.18 1009.64 1010.17 1010.71 1011.21 1011.62 1011.95 1012.21 1012.42 1012.63 1012.87 1013.16 1013.52 1013.91 1014.34 1014.75 1015.14 1015.50 1015.84 1016.19 1016.57 1017.03 1017.58 1018.23
1010.98 1011.21 1011.54 1011.88 1012.16 1012.32 1012.33 1012.18 1011.92 1011.60 1011.30 1011.07 1010.94 1010.92 1010.96 1011.03 1011.04 1010.98 1010.80 1010.52 1010.19 1009.87 1009.63 1009.52 1009.59 1009.82 1010.19 1010.65 1011.13 1011.58 1011.96 1012.25 1012.47 1012.64 1012.82 1013.03 1013.31 1013.64 1014.03 1014.44 1014.84 1015.20 1015.53 1015.82 1016.10 1016.41 1016.80 1017.29 1017.91
1010.55 1011.05 1011.66 1012.27 1012.78 1013.11 1013.20 1013.07 1012.77 1012.38 1011.99 1011.70 1011.53 1011.52 1011.61 1011.75 1011.86 1011.89 1011.79 1011.55 1011.23 1010.87 1010.55 1010.34 1010.30 1010.42 1010.70 1011.07 1011.50 1011.91 1012.27 1012.55 1012.77 1012.95 1013.13 1013.35 1013.62 1013.96 1014.34 1014.73 1015.11 1015.45 1015.73 1015.97 1016.18 1016.42 1016.73 1017.15 1017.70
1010.42 1011.16 1012.02 1012.86 1013.56 1014.00 1014.14 1013.99 1013.61 1013.11 1012.61 1012.22 1011.99 1011.95 1012.07 1012.27 1012.48 1012.60 1012.59 1012.42 1012.12 1011.75 1011.38 1011.09 1010.94 1010.96 1011.13 1011.42 1011.79 1012.17 1012.52 1012.82 1013.07 1013.29 1013.51 1013.76 1014.06 1014.41 1014.80 1015.20 1015.56 1015.88 1016.12 1016.31 1016.47 1016.64 1016.88 1017.21 1017.68
1010.59 1011.52 1012.57 1013.57 1014.38 1014.89 1015.03 1014.83 1014.35 1013.73 1013.11 1012.60 1012.30 1012.22 1012.35 1012.61 1012.90 1013.12 1013.20 1013.11 1012.86 1012.51 1012.11 1011.76 1011.53 1011.44 1011.51 1011.72 1012.03 1012.38 1012.73 1013.05 1013.35 1013.63 1013.91 1014.22 1014.57 1014.96 1015.37 1015.78 1016.15 1016.45 1016.67 1016.83 1016.95 1017.07 1017.24 1017.49 1017.87
1010.99 1012.03 1013.18 1014.27 1015.12 1015.63 1015.74 1015.47 1014.91 1014.18 1013.45 1012.85 1012.48 1012.38 1012.51 1012.82 1013.18 1013.51 1013.69 1013.70 1013.52 1013.20 1012.80 1012.42 1012.11 1011.94 1011.92 1012.04 1012.28 1012.59 1012.94 1013.29 1013.63 1013.98 1014.34 1014.71 1015.13 1015.56 1016.01 1016.43 1016.81 1017.11 1017.33 1017.48 1017.58 1017.66 1017.78 1017.97 1018.26
1011.49 1012.55 1013.71 1014.78 1015.62 1016.10 1016.16 1015.83 1015.20 1014.42 1013.63 1012.98 1012.59 1012.48 1012.64 1012.99 1013.43 1013.85 1014.14 1014.24 1014.15 1013.89 1013.52 1013.12 1012.77 1012.53 1012.43 1012.47 1012.64 1012.91 1013.24 1013.60 1013.99 1014.39 1014.81 1015.25 1015.72 1016.20 1016.68 1017.12 1017.51 1017.82 1018.04 1018.19 1018.28 1018.35 1018.44 1018.58 1018.80
1011.93 1012.91 1013.99 1014.99 1015.75 1016.17 1016.19 1015.84 1015.21 1014.43 1013.66 1013.04 1012.67 1012.60 1012.80 1013.21 1013.73 1014.23 1014.61 1014.82 1014.82 1014.63 1014.31 1013.93 1013.57 1013.28 1013.12 1013.09 1013.20 1013.41 1013.71 1014.08 1014.48 1014.92 1015.38 1015.87 1016.37 1016.88 1017.37 1017.83 1018.22 1018.53 1018.76 1018.91 1019.01 1019.07 1019.15 1019.26 1019.42
1012.18 1013.01 1013.93 1014.79 1015.45 1015.80 1015.81 1015.49 1014.93 1014.24 1013.58 1013.06 1012.79 1012.80 1013.07 1013.55 1014.13 1014.70 1015.17 1015.46 1015.55 1015.45 1015.20 1014.87 1014.52 1014.22 1014.03 1013.95 1014.00 1014.17 1014.43 1014.77 1015.17 1015.62 1016.10 1016.60 1017.11 1017.62 1018.11 1018.54 1018.92 1019.22 1019.44 1019.59 1019.70 1019.77 1019.84 1019.94 1020.08
1012.18 1012.82 1013.54 1014.23 1014.77 1015.07 1015.09 1014.86 1014.43 1013.92 1013.44 1013.10 1012.98 1013.11 1013.47 1014.01 1014.64 1015.27 1015.79 1016.16 1016.33 1016.32 1016.15 1015.89 1015.59 1015.31 1015.11 1015.02 1015.03 1015.15 1015.38 1015.69 1016.07 1016.50 1016.97 1017.46 1017.95 1018.44 1018.89 1019.29 1019.62 1019.89 1020.09 1020.22 1020.32 1020.40 1020.48 1020.58 1020.72
Thickness
5788 5789 5789 5778 5753 5735 5734 5758 5780 5789 5800 5818 5823 5816 5806 5798 5788 5783 5815 5822 5818 5812 5807 5802 5800 5798 5796 5794 5792 5791 5790 5789 5787 5786 5784 5783 5781 5779 5777 5775 5773 5771 5768 5765 5763 5761 5758 5756 5754
5783 5786 5777 5759 5733 5719 5732 5765 5779 5792 5810 5822 5822 5817 5808 5805 5816 5814 5816 5819 5817 5812 5806 5802 5799 5797 5795 5793 5791 5789 5788 5786 5785 5784 5782 5780 5778 5777 5774 5772 5770 5768 5765 5763 5760 5758 5756 5754 5752
5779 5779 5759 5741 5729 5723 5740 5772 5785 5802 5819 5821 5816 5816 5810 5807 5817 5818 5823 5821 5816 5810 5805 5801 5797 5795 5793 5791 5788 5786 5785 5783 5782 5781 5780 5778 5776 5774 5772 5770 5767 5765 5763 5760 5758 5756 5754 5752 5750
5770 5759 5747 5730 5729 5745 5759 5778 5789 5793 5808 5820 5815 5805 5811 5824 5826 5827 5825 5820 5812 5807 5803 5799 5795 5793 5790 5788 5785 5783 5781 5780 5779 5778 5777 5775 5773 5771 5769 5767 5765 5763 5760 5758 5756 5753 5751 5750 5748
5760 5742 5728 5720 5731 5754 5772 5784 5789 5787 5798 5813 5811 5798 5801 5823 5832 5829 5823 5817 5810 5804 5800 5796 5792 5790 5787 5785 5783 5780 5778 5776 5775 5774 5773 5771 5770 5768 5766 5764 5762 5760 5758 5756 5753 5751 5749 5748 5746
5739 5728 5712 5710 5729 5756 5774 5786 5789 5792 5800 5810 5807 5795 5797 5817 5821 5821 5819 5813 5808 5802 5796 5792 5788 5785 5783 5781 5779 5777 5775 5773 5771 5770 5769 5767 5766 5764 5763 5761 5759 5757 5755 5753 5751 5749 5747 5745 5744
5729 5718 5712 5721 5730 5746 5772 5788 5791 5795 5799 5807 5811 5792 5792 5804 5815 5817 5814 5809 5803 5798 5792 5787 5784 5781 5778 5776 5774 5772 5771 5769 5767 5766 5764 5763 5762 5760 5759 5757 5755 5753 5751 5750 5748 5746 5744 5743 5742
5736 5720 5719 5721 5728 5740 5769 5782 5794 5799 5802 5817 5813 5790 5785 5799 5809 5809 5805 5800 5795 5790 5786 5782 5780 5778 5774 5771 5769 5768 5766 5764 5763 5761 5760 5758 5757 5756 5755 5753 5752 5750 5748 5747 5745 5743 5742 5740 5740
5739 5712 5706 5719 5729 5742 5763 5770 5789 5804 5804 5808 5810 5806 5806 5805 5803 5797 5791 5787 5784 5781 5779 5776 5774 5772 5770 5767 5764 5762 5760 5759 5758 5756 5755 5754 5752 5751 5750 5749 5748 5747 5745 5743 5742 5740 5739 5738 5737
5726 5703 5715 5735 5744 5749 5757 5765 5779 5786 5785 5790 5796 5803 5806 5801 5795 5788 5783 5779 5776 5773 5773 5773 5770 5768 5766 5763 5760 5758 5756 5754 5752 5751 5750 5748 5747 5746 5745 5744 5744 5743 5741 5740 5738 5737 5736 5735 5734
5728 5720 5732 5745 5755 5756 5757 5767 5778 5774 5771 5779 5783 5788 5792 5790 5785 5781 5778 5776 5774 5772 5771 5769 5768 5765 5762 5760 5756 5753 5751 5749 5747 5745 5744 5743 5742 5741 5740 5739 5739 5739 5737 5736 5735 5734 5733 5732 5732
5728 5734 5742 5749 5760 5758 5762 5769 5771 5770 5772 5784 5789 5789 5784 5778 5773 5773 5771 5770 5768 5764 5763 5764 5764 5762 5760 5757 5753 5749 5747 5744 5742 5740 5739 5738 5737 5737 5736 5735 5735 5734 5734 5733 5732 5731 5730 5730 5730
5726 5733 5747 5754 5756 5758 5764 5766 5768 5767 5777 5783 5784 5780 5773 5769 5766 5767 5767 5765 5762 5759 5757 5758 5759 5757 5754 5752 5748 5744 5742 5740 5737 5735 5734 5733 5733 5733 5732 5731 5730 5730 5730 5729 5728 5727 5727 5727 5727
5732 5737 5745 5752 5754 5759 5758 5761 5761 5762 5773 5773 5771 5767 5764 5761 5759 5758 5758 5758 5756 5752 5751 5752 5753 5751 5747 5744 5742 5740 5737 5735 5732 5730 5729 5728 5728 5728 5728 5727 5726 5726 5726 5726 5725 5723 5723 5724 5724
5736 5731 5736 5747 5752 5756 5754 5743 5750 5761 5765 5760 5759 5757 5756 5755 5754 5752 5753 5753 5752 5750 5749 5748 5748 5747 5744 5739 5738 5736 5733 5730 5728 5726 5725 5723 5723 5723 5723 5723 5722 5723 5722 5722 5721 5720 5719 5719 5719
5724 5718 5714 5733 5746 5751 5739 5721 5745 5758 5755 5749 5749 5748 5746 5744 5744 5744 5745 5744 5744 5743 5741 5742 5743 5741 5740 5737 5734 5731 5729 5726 5723 5721 5720 5720 5720 5719 5719 5719 5719 5719 5718 5718 5717 5717 5714 5713 5713
5702 5697 5703 5719 5742 5744 5731 5719 5740 5751 5747 5740 5739 5737 5735 5733 5734 5736 5737 5735 5733 5732 5734 5736 5735 5733 5732 5731 5728 5726 5725 5722 5720 5717 5716 5715 5715 5715 5714 5715 5715 5715 5714 5714 5714 5712 5710 5707 5706
5687 5694 5701 5709 5733 5737 5725 5720 5732 5739 5736 5730 5728 5725 5724 5721 5720 5724 5726 5726 5724 5724 5726 5726 5726 5724 5723 5722 5720 5717 5716 5715 5714 5712 5711 5710 5710 5710 5710 5711 5711 5710 5710 5709 5708 5707 5705 5704 5702
5700 5698 5698 5714 5735 5729 5719 5716 5720 5726 5724 5719 5715 5714 5711 5710 5711 5713 5714 5713 5713 5713 5715 5716 5716 5716 5715 5714 5713 5709 5707 5706 5705 5705 5705 5705 5705 5705 5706 5707 5707 5707 5706 5706 5705 5702 5700 5697 5696
5701 5696 5700 5713 5732 5727 5715 5706 5711 5715 5713 5711 5708 5705 5702 5701 5700 5702 5701 5700 5701 5700 5700 5703 5705 5708 5709 5709 5707 5705 5701 5699 5697 5697 5697 5698 5698 5700 5701 5702 5703 5703 5703 5702 5701 5699 5696 5693 5692
5704 5701 5704 5707 5718 5720 5710 5692 5695 5699 5701 5699 5696 5696 5694 5691 5688 5688 5689 5686 5688 5688 5688 5691 5694 5699 5700 5701 5699 5697 5693 5691 5688 5687 5688 5688 5691 5693 5695 5696 5697 5698 5698 5697 5697 5696 5693 5689 5687
5697 5715 5715 5710 5697 5686 5696 5669 5679 5684 5683 5682 5681 5681 5680 5679 5677 5676 5675 5675 5675 5676 5677 5681 5684 5686 5688 5690 5691 5689 5686 5683 5681 5680 5679 5679 5682 5685 5687 5689 5690 5691 5691 5691 5691 5692 5690 5687 5682
5709 5719 5713 5707 5694 5681 5681 5667 5665 5674 5672 5671 5670 5669 5668 5667 5666 5665 5664 5663 5663 5664 5666 5670 5674 5676 5677 5679 5680 5680 5677 5676 5674 5672 5672 5672 5673 5676 5678 5680 5681 5682 5683 5684 5684 5684 5684 5682 5679
5721 5710 5701 5688 5674 5659 5670 5661 5656 5660 5666 5665 5661 5659 5657 5656 5655 5654 5652 5654 5653 5653 5655 5660 5663 5665 5667 5669 5670 5670 5669 5667 5666 5665 5665 5665 5664 5665 5668 5671 5671 5672 5673 5674 5674 5675 5675 5673 5672
5708 5680 5657 5653 5644 5648 5666 5657 5652 5662 5667 5662 5654 5649 5646 5645 5644 5642 5640 5641 5641 5642 5644 5648 5652 5653 5655 5657 5658 5659 5658 5658 5658 5657 5657 5656 5655 5655 5657 5658 5660 5660 5661 5662 5663 5664 5663 5662 5660
5698 5681 5651 5640 5637 5643 5657 5650 5651 5659 5660 5655 5649 5644 5640 5635 5633 5631 5629 5629 5629 5630 5632 5635 5638 5640 5643 5644 5645 5646 5646 5646 5645 5646 5645 5645 5644 5644 5645 5647 5647 5648 5649 5650 5651 5651 5650 5649 5648
5692 5682 5676 5654 5649 5639 5640 5645 5649 5652 5649 5645 5641 5636 5631 5627 5624 5622 5620 5618 5618 5618 5619 5622 5626 5628 5630 5631 5631 5632 5632 5634 5633 5633 5633 5633 5633 5633 5634 5635 5636 5635 5636 5636 5637 5636 5636 5636 5634
5695 5686 5664 5650 5636 5629 5637 5640 5639 5644 5642 5640 5635 5628 5623 5619 5616 5613 5611 5610 5609 5608 5608 5610 5613 5615 5617 5619 5619 5620 5620 5621 5621 5622 5621 5621 5622 5622 5623 5623 5624 5624 5624 5624 5624 5623 5622 5622 5621
5683 5677 5663 5648 5642 5629 5622 5632 5654 5649 5645 5637 5631 5625 5618 5612 5608 5605 5602 5601 5599 5599 5599 5601 5601 5603 5604 5605 5606 5608 5608 5609 5609 5609 5609 5609 5610 5611 5611 5612 5612 5612 5612 5612 5612 5611 5610 5609 5608
5684 5676 5663 5646 5642 5638 5627 5632 5654 5650 5642 5634 5627 5620 5613 5607 5601 5598 5594 5591 5590 5590 5590 5590 5590 5591 5592 5593 5594 5595 5596 5597 5597 5597 5597 5598 5599 5599 5600 5600 5600 5600 5599 5599 5599 5600 5599 5598 5596